| time (UTC) | temp F | wind direction | speed MPH | gust MPH | rain 1hr in | rain 24hr in | rain mn in | humidity % | barometer mb |
| 20260505051600 | 56 | 0 | 0.0 | 2.0 | 0.00 | 0.00 | 0.00 | 64 | 1009.5 |
| 20260505050126 | 57 | 0 | 0.0 | 1.0 | 0.00 | 0.00 | 0.00 | 63 | 1009.5 |
| 20260505041607 | 58 | 0 | 0.0 | 2.0 | 0.00 | 0.00 | 0.00 | 60 | 1009.6 |
| 20260505034557 | 59 | 0 | 0.0 | 2.0 | 0.00 | 0.00 | 0.00 | 57 | 1009.4 |
| 20260505033059 | 59 | 0 | 1.0 | 5.0 | 0.00 | 0.00 | 0.00 | 56 | 1009.4 |
| 20260505031601 | 59 | 202 | 1.0 | 13.0 | 0.00 | 0.00 | 0.00 | 55 | 1009.5 |
| 20260505030104 | 59 | 0 | 0.0 | 9.0 | 0.00 | 0.00 | 0.00 | 54 | 1009.4 |
| 20260505024559 | 60 | 67 | 0.0 | 5.0 | 0.00 | 0.00 | 0.00 | 53 | 1009.4 |
| 20260505023059 | 60 | 0 | 0.0 | 5.0 | 0.00 | 0.00 | 0.00 | 52 | 1009.2 |
| 20260505021557 | 61 | 0 | 0.0 | 4.0 | 0.00 | 0.00 | 0.00 | 51 | 1009.3 |
| 20260505020058 | 61 | 0 | 0.0 | 5.0 | 0.00 | 0.00 | 0.00 | 50 | 1009.4 |
| 20260505014618 | 61 | 167 | 1.0 | 11.0 | 0.00 | 0.00 | 0.00 | 50 | 1009.2 |
| 20260505013058 | 62 | 0 | 0.0 | 3.0 | 0.00 | 0.00 | 0.00 | 49 | 1009.0 |
| 20260505011605 | 62 | 242 | 0.0 | 6.0 | 0.00 | 0.00 | 0.00 | 49 | 1008.8 |
| 20260505010058 | 62 | 182 | 0.0 | 9.0 | 0.00 | 0.00 | 0.00 | 50 | 1008.5 |
| 20260505004557 | 63 | 0 | 1.0 | 7.0 | 0.00 | 0.00 | 0.00 | 49 | 1008.4 |
| 20260505003057 | 64 | 192 | 0.0 | 12.0 | 0.00 | 0.00 | 0.00 | 47 | 1008.0 |
| 20260505001624 | 65 | 0 | 1.0 | 14.0 | 0.00 | 0.00 | 0.00 | 45 | 1007.6 |
| 20260505000135 | 66 | 0 | 0.0 | 10.0 | 0.00 | 0.00 | 0.00 | 44 | 1007.0 |
| 20260504234614 | 67 | 200 | 1.0 | 13.0 | 0.00 | 0.00 | 0.00 | 42 | 1006.6 |
| 20260504233107 | 68 | 168 | 2.0 | 9.0 | 0.00 | 0.00 | 0.00 | 40 | 1006.4 |
| 20260504231558 | 70 | 242 | 1.0 | 10.0 | 0.00 | 0.00 | 0.00 | 36 | 1006.2 |
| 20260504230057 | 71 | 285 | 0.0 | 7.0 | 0.00 | 0.00 | 0.00 | 32 | 1005.8 |
| 20260504224610 | 72 | 211 | 1.0 | 6.0 | 0.00 | 0.00 | 0.00 | 31 | 1005.6 |
| 20260504223058 | 72 | 284 | 0.0 | 9.0 | 0.00 | 0.00 | 0.00 | 31 | 1005.6 |
| 20260504221600 | 73 | 0 | 1.0 | 11.0 | 0.00 | 0.00 | 0.00 | 31 | 1005.6 |
| 20260504220101 | 73 | 233 | 1.0 | 10.0 | 0.00 | 0.00 | 0.00 | 31 | 1005.5 |
| 20260504214604 | 73 | 0 | 0.0 | 8.0 | 0.00 | 0.00 | 0.00 | 32 | 1005.6 |
| 20260504213146 | 73 | 179 | 1.0 | 7.0 | 0.00 | 0.00 | 0.00 | 30 | 1005.5 |
| 20260504211606 | 73 | 0 | 1.0 | 8.0 | 0.00 | 0.00 | 0.00 | 30 | 1005.4 |
| 20260504210058 | 75 | 229 | 2.0 | 10.0 | 0.00 | 0.00 | 0.00 | 27 | 1005.6 |
| 20260504204603 | 76 | 0 | 2.0 | 11.0 | 0.00 | 0.00 | 0.00 | 29 | 1005.6 |
| 20260504203121 | 76 | 0 | 3.0 | 10.0 | 0.00 | 0.00 | 0.00 | 27 | 1005.7 |
| 20260504201558 | 76 | 0 | 3.0 | 10.0 | 0.00 | 0.00 | 0.00 | 26 | 1005.8 |
| 20260504200058 | 76 | 247 | 0.0 | 11.0 | 0.00 | 0.00 | 0.00 | 28 | 1005.7 |
| 20260504194608 | 76 | 0 | 1.0 | 9.0 | 0.00 | 0.00 | 0.00 | 28 | 1005.7 |
| 20260504193111 | 76 | 196 | 2.0 | 10.0 | 0.00 | 0.00 | 0.00 | 29 | 1005.6 |
| 20260504191557 | 75 | 207 | 2.0 | 12.0 | 0.00 | 0.00 | 0.00 | 28 | 1005.7 |
| 20260504190116 | 76 | 199 | 3.0 | 13.0 | 0.00 | 0.00 | 0.00 | 26 | 1005.9 |
| 20260504184607 | 76 | 234 | 1.0 | 15.0 | 0.00 | 0.01 | 0.00 | 28 | 1005.9 |
| 20260504183059 | 75 | 0 | 2.0 | 17.0 | 0.00 | 0.01 | 0.00 | 28 | 1005.9 |
| 20260504181603 | 76 | 247 | 2.0 | 8.0 | 0.00 | 0.01 | 0.00 | 28 | 1006.0 |
| 20260504180100 | 75 | 220 | 2.0 | 16.0 | 0.00 | 0.01 | 0.00 | 30 | 1006.4 |
| 20260504174612 | 75 | 215 | 2.0 | 11.0 | 0.00 | 0.01 | 0.00 | 29 | 1006.2 |
| 20260504173109 | 74 | 219 | 2.0 | 15.0 | 0.00 | 0.01 | 0.00 | 31 | 1006.7 |
| 20260504171557 | 74 | 236 | 2.0 | 12.0 | 0.00 | 0.01 | 0.00 | 29 | 1006.5 |
| 20260504140109 | 67 | 0 | 1.0 | 10.0 | 0.00 | 0.03 | 0.00 | 37 | 1008.4 |
| 20260504110119 | 49 | 0 | 0.0 | 0.0 | 0.00 | 0.03 | 0.00 | 59 | 1009.8 |
| 20260504100105 | 47 | 0 | 0.0 | 6.0 | 0.00 | 0.03 | 0.00 | 60 | 1009.6 |
| 20260504090120 | 45 | 0 | 0.0 | 0.0 | 0.00 | 0.03 | 0.00 | 65 | 1009.5 |
| 20260504081608 | 44 | 0 | 0.0 | 0.0 | 0.00 | 0.03 | 0.00 | 68 | 1009.6 |
| 20260504080106 | 43 | 0 | 0.0 | 0.0 | 0.00 | 0.03 | 0.00 | 69 | 1009.5 |